HAZ2212 ZGGG-ZSHC

Flight info

Callsign HAZ2212
Flight time 1h 29m
Altitude 35100
Route BOVMA W41 OMDUP G471 PLT A599 ELNEX
Aircraft B738/M-SDE2E3FGHIRWXY/LB1

Departure

Time 2026-04-27 10:54
Airport Guangzhou Baiyun International Airport (ZGGG)

Arrival

Time 2026-04-27 12:23
Airport Hangzhou Xiaoshan International Airport (ZSHC)
Time Latitude Longitude Altitude Speed Heading
2026-04-27 10:08 23.39205 113.30382 57 ft 0 kts 193°
2026-04-27 10:41 23.39217 113.30385 57 ft 4 kts 190°
2026-04-27 10:41 23.39243 113.30387 57 ft 4 kts 170°
2026-04-27 10:41 23.39264 113.30376 57 ft 4 kts 120°
2026-04-27 10:42 23.39268 113.30368 57 ft 0 kts 104°
2026-04-27 10:43 23.39268 113.30369 57 ft 0 kts 104°
2026-04-27 10:44 23.39267 113.30369 57 ft 0 kts 104°
2026-04-27 10:45 23.39258 113.30412 57 ft 10 kts 104°
2026-04-27 10:45 23.39241 113.30482 57 ft 10 kts 104°
2026-04-27 10:46 23.39230 113.30551 57 ft 9 kts 79°
2026-04-27 10:46 23.39275 113.30592 57 ft 9 kts 15°
2026-04-27 10:46 23.39334 113.30609 57 ft 9 kts 14°
2026-04-27 10:46 23.39391 113.30624 57 ft 8 kts 14°
2026-04-27 10:47 23.39461 113.30643 57 ft 12 kts 13°
2026-04-27 10:47 23.39515 113.30669 57 ft 8 kts 58°
2026-04-27 10:47 23.39513 113.30727 57 ft 8 kts 103°
2026-04-27 10:47 23.39501 113.30782 57 ft 7 kts 104°
2026-04-27 10:48 23.39496 113.30835 57 ft 7 kts 70°
2026-04-27 10:48 23.39543 113.30866 57 ft 12 kts 14°
2026-04-27 10:48 23.39639 113.30892 57 ft 13 kts 14°
2026-04-27 10:48 23.39726 113.30915 57 ft 13 kts 14°
2026-04-27 10:49 23.39809 113.30938 57 ft 12 kts 14°
2026-04-27 10:49 23.39889 113.30960 57 ft 12 kts 14°
2026-04-27 10:49 23.39966 113.30980 57 ft 11 kts 13°
2026-04-27 10:49 23.40039 113.31000 57 ft 11 kts 14°
2026-04-27 10:50 23.40110 113.31019 57 ft 10 kts 14°
2026-04-27 10:50 23.40179 113.31038 57 ft 12 kts 14°
2026-04-27 10:50 23.40279 113.31064 57 ft 16 kts 14°
2026-04-27 10:50 23.40382 113.31092 57 ft 15 kts 14°
2026-04-27 10:51 23.40478 113.31118 57 ft 14 kts 14°
2026-04-27 10:51 23.40568 113.31143 57 ft 13 kts 14°
2026-04-27 10:51 23.40652 113.31165 57 ft 11 kts 13°
2026-04-27 10:51 23.40714 113.31185 57 ft 9 kts 33°
2026-04-27 10:52 23.40721 113.31245 57 ft 9 kts 104°
2026-04-27 10:52 23.40707 113.31307 57 ft 8 kts 104°
2026-04-27 10:52 23.40692 113.31359 57 ft 7 kts 129°
2026-04-27 10:52 23.40650 113.31366 57 ft 6 kts 192°
2026-04-27 10:53 23.40586 113.31350 57 ft 21 kts 193°
2026-04-27 10:53 23.39309 113.31004 60 ft 161 kts 193°
2026-04-27 10:53 23.38131 113.30682 531 ft 184 kts 193°
2026-04-27 10:54 23.36936 113.30358 1738 ft 171 kts 193°
2026-04-27 10:54 23.35782 113.30044 2580 ft 175 kts 192°
2026-04-27 10:54 23.34519 113.29703 2985 ft 201 kts 192°
2026-04-27 10:54 23.33080 113.29317 3288 ft 227 kts 192°
2026-04-27 10:55 23.31471 113.28886 3807 ft 243 kts 192°
2026-04-27 10:55 23.29833 113.28523 4812 ft 240 kts 186°
2026-04-27 10:55 23.28166 113.28389 5748 ft 240 kts 181°
2026-04-27 10:55 23.26490 113.28379 6621 ft 242 kts 179°
2026-04-27 10:56 23.24788 113.28444 7426 ft 247 kts 178°
2026-04-27 10:56 23.23020 113.28453 7981 ft 263 kts 181°
2026-04-27 10:56 23.21177 113.28419 8590 ft 273 kts 181°
2026-04-27 10:56 23.19260 113.28352 9341 ft 278 kts 185°
2026-04-27 10:57 23.17340 113.28054 10140 ft 280 kts 192°
2026-04-27 10:57 23.15418 113.27575 10842 ft 288 kts 194°
2026-04-27 10:57 23.13379 113.27213 11192 ft 309 kts 181°
2026-04-27 10:57 23.11204 113.27661 11462 ft 332 kts 160°
2026-04-27 10:58 23.09182 113.29017 11812 ft 353 kts 140°
2026-04-27 10:58 23.07647 113.31138 12425 ft 364 kts 121°
2026-04-27 10:58 23.06802 113.33723 13042 ft 375 kts 103°
2026-04-27 10:58 23.06724 113.36570 13657 ft 384 kts 85°
2026-04-27 10:59 23.07460 113.39383 14263 ft 392 kts 66°
2026-04-27 10:59 23.08951 113.41871 14871 ft 397 kts 49°
2026-04-27 10:59 23.11056 113.43806 15463 ft 399 kts 32°
2026-04-27 11:00 23.15574 113.47386 16631 ft 410 kts 47°
2026-04-27 11:00 23.17197 113.49948 17179 ft 415 kts 61°
2026-04-27 11:00 23.18467 113.52736 17683 ft 420 kts 63°
2026-04-27 11:00 23.19829 113.55552 18190 ft 424 kts 60°
2026-04-27 11:01 23.21324 113.58333 18729 ft 427 kts 58°
2026-04-27 11:01 23.22911 113.61073 19254 ft 430 kts 56°
2026-04-27 11:01 23.24525 113.63821 19759 ft 433 kts 56°
2026-04-27 11:01 23.26149 113.66593 20221 ft 437 kts 56°
2026-04-27 11:02 23.27784 113.69389 20710 ft 440 kts 56°
2026-04-27 11:02 23.29431 113.72207 21177 ft 443 kts 56°
2026-04-27 11:02 23.31091 113.75048 21605 ft 446 kts 56°
2026-04-27 11:02 23.32737 113.77869 22036 ft 449 kts 56°
2026-04-27 11:03 23.34416 113.80744 22467 ft 452 kts 56°
2026-04-27 11:03 23.36105 113.83636 22882 ft 454 kts 56°
2026-04-27 11:03 23.37806 113.86556 23281 ft 457 kts 56°
2026-04-27 11:03 23.39526 113.89479 23647 ft 460 kts 56°
2026-04-27 11:04 23.41250 113.92427 24033 ft 463 kts 56°
2026-04-27 11:04 23.42978 113.95392 24376 ft 466 kts 56°
2026-04-27 11:04 23.44710 113.98369 24856 ft 465 kts 56°
2026-04-27 11:04 23.46422 114.01315 25161 ft 469 kts 56°
2026-04-27 11:05 23.48167 114.04321 25502 ft 471 kts 56°
2026-04-27 11:05 23.49921 114.07342 25889 ft 472 kts 56°
2026-04-27 11:05 23.51767 114.10299 26236 ft 472 kts 50°
2026-04-27 11:05 23.54018 114.12896 26583 ft 471 kts 39°
2026-04-27 11:06 23.56633 114.15033 26901 ft 470 kts 30°
2026-04-27 11:06 23.59489 114.16767 27222 ft 470 kts 24°
2026-04-27 11:06 23.62458 114.18263 27530 ft 471 kts 21°
2026-04-27 11:06 23.65453 114.19725 27837 ft 473 kts 22°
2026-04-27 11:07 23.68402 114.21221 28133 ft 475 kts 22°
2026-04-27 11:07 23.71395 114.22761 28411 ft 477 kts 23°
2026-04-27 11:07 23.74406 114.24317 28707 ft 479 kts 23°
2026-04-27 11:07 23.77419 114.25875 28971 ft 481 kts 23°
2026-04-27 11:08 23.80427 114.27482 29246 ft 483 kts 26°
2026-04-27 11:08 23.83331 114.29352 29504 ft 486 kts 32°
2026-04-27 11:08 23.85177 114.30743 29667 ft 488 kts 34°
2026-04-27 11:08 23.88792 114.33689 30021 ft 490 kts 36°
2026-04-27 11:09 23.91509 114.35943 30305 ft 491 kts 36°
2026-04-27 11:09 23.94229 114.38188 30701 ft 489 kts 35°
2026-04-27 11:09 23.96937 114.40417 31069 ft 487 kts 35°
2026-04-27 11:09 23.99648 114.42645 31420 ft 487 kts 35°
2026-04-27 11:10 24.02348 114.44862 31814 ft 485 kts 35°
2026-04-27 11:10 24.04129 114.46325 32048 ft 484 kts 35°
2026-04-27 11:10 24.06818 114.48533 32400 ft 483 kts 35°
2026-04-27 11:10 24.09505 114.50740 32733 ft 482 kts 34°
2026-04-27 11:11 24.12194 114.52933 33072 ft 481 kts 34°
2026-04-27 11:11 24.15740 114.55834 33561 ft 479 kts 34°
2026-04-27 11:11 24.18407 114.58022 33862 ft 479 kts 34°
2026-04-27 11:11 24.20213 114.59504 34079 ft 479 kts 34°
2026-04-27 11:12 24.23734 114.62398 34478 ft 478 kts 34°
2026-04-27 11:12 24.26399 114.64589 34748 ft 479 kts 34°
2026-04-27 11:12 24.28163 114.66041 34930 ft 479 kts 34°
2026-04-27 11:12 24.30837 114.68243 35012 ft 482 kts 34°
2026-04-27 11:13 24.37116 114.73406 35016 ft 482 kts 34°
2026-04-27 11:13 24.42419 114.77777 35016 ft 479 kts 34°
2026-04-27 11:14 24.46847 114.81438 35017 ft 480 kts 34°
2026-04-27 11:14 24.52179 114.85854 35016 ft 480 kts 34°
2026-04-27 11:15 24.57533 114.90239 35014 ft 478 kts 30°
2026-04-27 11:15 24.63409 114.93494 35018 ft 471 kts 15°
2026-04-27 11:16 24.69665 114.95249 35017 ft 466 kts
2026-04-27 11:16 24.76006 114.96801 35018 ft 467 kts
2026-04-27 11:17 24.82344 114.98348 35022 ft 467 kts
2026-04-27 11:17 24.88686 114.99896 35022 ft 466 kts
2026-04-27 11:18 24.95014 115.01444 35022 ft 466 kts
2026-04-27 11:18 25.01305 115.02984 35023 ft 466 kts
2026-04-27 11:19 25.07638 115.04526 35022 ft 466 kts
2026-04-27 11:19 25.13978 115.06079 35023 ft 467 kts
2026-04-27 11:20 25.20323 115.07638 35023 ft 467 kts
2026-04-27 11:20 25.26620 115.09186 35023 ft 467 kts
2026-04-27 11:21 25.32988 115.10278 35020 ft 458 kts 354°
2026-04-27 11:21 25.36114 115.09867 35023 ft 450 kts 342°
2026-04-27 11:21 25.39086 115.08845 35026 ft 446 kts 335°
2026-04-27 11:22 25.44757 115.06133 35023 ft 443 kts 330°
2026-04-27 11:22 25.50295 115.03248 35023 ft 443 kts 330°
2026-04-27 11:23 25.55887 115.00375 35021 ft 443 kts 330°
2026-04-27 11:23 25.61479 114.97492 35022 ft 444 kts 330°
2026-04-27 11:24 25.67071 114.94604 35017 ft 443 kts 330°
2026-04-27 11:24 25.72630 114.91729 35014 ft 444 kts 330°
2026-04-27 11:25 25.75546 114.90553 35005 ft 451 kts 343°
2026-04-27 11:25 25.78698 114.90238 35011 ft 461 kts 358°
2026-04-27 11:25 25.81893 114.90847 35013 ft 471 kts 13°
2026-04-27 11:25 25.84896 114.92353 35013 ft 479 kts 28°
2026-04-27 11:26 25.87524 114.94659 35016 ft 485 kts 41°
2026-04-27 11:26 25.89817 114.97427 35017 ft 488 kts 46°
2026-04-27 11:26 25.94235 115.03165 35014 ft 488 kts 45°
2026-04-27 11:27 25.98742 115.08714 35021 ft 487 kts 44°
2026-04-27 11:27 26.03338 115.14251 35019 ft 488 kts 44°
2026-04-27 11:28 26.07970 115.19757 35019 ft 487 kts 43°
2026-04-27 11:28 26.12597 115.25261 35019 ft 487 kts 43°
2026-04-27 11:29 26.17187 115.30735 35019 ft 487 kts 43°
2026-04-27 11:29 26.21805 115.36251 35019 ft 487 kts 43°
2026-04-27 11:30 26.26417 115.41769 35019 ft 486 kts 43°
2026-04-27 11:30 26.31027 115.47291 35019 ft 486 kts 43°
2026-04-27 11:31 26.35600 115.52776 35020 ft 486 kts 43°
2026-04-27 11:31 26.40205 115.58306 35020 ft 486 kts 43°
2026-04-27 11:32 26.44807 115.63839 35020 ft 486 kts 43°
2026-04-27 11:32 26.49404 115.69375 35021 ft 486 kts 43°
2026-04-27 11:33 26.53972 115.74881 35021 ft 486 kts 43°
2026-04-27 11:33 26.58569 115.80429 35021 ft 486 kts 43°
2026-04-27 11:34 26.63160 115.85978 35021 ft 486 kts 43°
2026-04-27 11:34 26.67746 115.91528 35022 ft 486 kts 43°
2026-04-27 11:35 26.72336 115.97070 35022 ft 486 kts 43°
2026-04-27 11:35 26.76887 116.02585 35022 ft 485 kts 43°
2026-04-27 11:36 26.81450 116.08137 35023 ft 484 kts 43°
2026-04-27 11:36 26.86009 116.13694 35023 ft 484 kts 43°
2026-04-27 11:37 26.90569 116.19251 35023 ft 484 kts 43°
2026-04-27 11:37 26.95111 116.24755 35023 ft 483 kts 43°
2026-04-27 11:38 26.99694 116.30265 35024 ft 483 kts 43°
2026-04-27 11:38 27.04283 116.35777 35024 ft 483 kts 43°
2026-04-27 11:39 27.08859 116.41313 35023 ft 483 kts 43°
2026-04-27 11:39 27.13397 116.46815 35024 ft 483 kts 43°
2026-04-27 11:40 27.17963 116.52354 35024 ft 483 kts 43°
2026-04-27 11:40 27.22542 116.57888 35026 ft 483 kts 42°
2026-04-27 11:41 27.27225 116.63298 35026 ft 483 kts 42°
2026-04-27 11:41 27.31905 116.68710 35028 ft 482 kts 42°
2026-04-27 11:42 27.36539 116.74103 35031 ft 483 kts 42°
2026-04-27 11:42 27.41191 116.79545 35024 ft 482 kts 42°
2026-04-27 11:43 27.45834 116.84985 35026 ft 482 kts 42°
2026-04-27 11:43 27.50478 116.90428 35031 ft 481 kts 42°
2026-04-27 11:44 27.55135 116.95849 35031 ft 481 kts 41°
2026-04-27 11:44 27.59775 117.01210 35031 ft 481 kts 42°
2026-04-27 11:45 27.64439 117.06616 35031 ft 481 kts 42°
2026-04-27 11:45 27.69097 117.12024 35031 ft 481 kts 42°
2026-04-27 11:46 27.73752 117.17437 35030 ft 481 kts 42°
2026-04-27 11:46 27.78386 117.22801 35030 ft 480 kts 42°
2026-04-27 11:47 27.83041 117.28200 35030 ft 479 kts 42°
2026-04-27 11:47 27.87699 117.33595 35030 ft 479 kts 42°
2026-04-27 11:48 27.92338 117.39011 35032 ft 479 kts 42°
2026-04-27 11:48 27.96939 117.44397 35037 ft 479 kts 42°
2026-04-27 11:49 28.01561 117.49813 35037 ft 478 kts 42°
2026-04-27 11:49 28.06184 117.55232 35037 ft 479 kts 43°
2026-04-27 11:50 28.10808 117.60649 35037 ft 478 kts 42°
2026-04-27 11:50 28.15391 117.66029 35037 ft 478 kts 43°
2026-04-27 11:51 28.20009 117.71447 35037 ft 477 kts 42°
2026-04-27 11:52 28.26938 117.79559 35036 ft 478 kts 43°
2026-04-27 11:52 28.31547 117.84997 35032 ft 478 kts 43°
2026-04-27 11:53 28.36118 117.90399 35035 ft 478 kts 43°
2026-04-27 11:53 28.40719 117.95836 35045 ft 478 kts 43°
2026-04-27 11:54 28.45268 118.01352 35046 ft 479 kts 44°
2026-04-27 11:54 28.49780 118.06924 35045 ft 479 kts 44°
2026-04-27 11:55 28.54294 118.12500 35049 ft 479 kts 44°
2026-04-27 11:55 28.58779 118.18044 35049 ft 480 kts 44°
2026-04-27 11:56 28.63292 118.23628 35048 ft 480 kts 44°
2026-04-27 11:56 28.67830 118.29211 35048 ft 481 kts 44°
2026-04-27 11:57 28.72366 118.34803 35048 ft 481 kts 44°
2026-04-27 11:57 28.76869 118.40375 35048 ft 481 kts 44°
2026-04-27 11:58 28.81403 118.46000 34701 ft 484 kts 44°
2026-04-27 11:58 28.83673 118.48819 34124 ft 482 kts 44°
2026-04-27 11:58 28.85945 118.51642 33456 ft 482 kts 44°
2026-04-27 11:58 28.88205 118.54454 32927 ft 479 kts 44°
2026-04-27 11:59 28.90445 118.57241 32410 ft 475 kts 44°
2026-04-27 11:59 28.92671 118.60014 31901 ft 472 kts 44°
2026-04-27 11:59 28.94852 118.62733 31406 ft 469 kts 44°
2026-04-27 11:59 28.97046 118.65469 30911 ft 465 kts 44°
2026-04-27 12:00 28.99224 118.68188 30423 ft 462 kts 44°
2026-04-27 12:00 29.01383 118.70884 29943 ft 459 kts 44°
2026-04-27 12:00 29.03534 118.73564 29471 ft 456 kts 44°
2026-04-27 12:00 29.05671 118.76218 29005 ft 452 kts 44°
2026-04-27 12:01 29.07789 118.78864 28535 ft 449 kts 44°
2026-04-27 12:01 29.09888 118.81494 28067 ft 446 kts 44°
2026-04-27 12:01 29.11943 118.84075 27606 ft 443 kts 44°
2026-04-27 12:01 29.14010 118.86672 27141 ft 440 kts 44°
2026-04-27 12:02 29.16065 118.89256 26677 ft 438 kts 44°
2026-04-27 12:02 29.18107 118.91826 26213 ft 435 kts 44°
2026-04-27 12:02 29.20133 118.94375 25752 ft 432 kts 44°
2026-04-27 12:02 29.22149 118.96912 25292 ft 429 kts 44°
2026-04-27 12:03 29.24148 118.99428 24835 ft 426 kts 45°
2026-04-27 12:03 29.26135 119.01932 24379 ft 423 kts 45°
2026-04-27 12:03 29.28108 119.04422 23925 ft 421 kts 45°
2026-04-27 12:03 29.30039 119.06867 23477 ft 418 kts 45°
2026-04-27 12:04 29.31982 119.09330 23024 ft 415 kts 45°
2026-04-27 12:04 29.33913 119.11776 22573 ft 413 kts 45°
2026-04-27 12:04 29.35832 119.14211 22123 ft 411 kts 45°
2026-04-27 12:04 29.37747 119.16625 21673 ft 408 kts 44°
2026-04-27 12:05 29.39658 119.19027 21222 ft 406 kts 44°
2026-04-27 12:05 29.41552 119.21418 20775 ft 404 kts 45°
2026-04-27 12:05 29.43431 119.23797 20330 ft 402 kts 45°
2026-04-27 12:05 29.45299 119.26166 19887 ft 400 kts 45°
2026-04-27 12:06 29.47162 119.28531 19445 ft 398 kts 45°
2026-04-27 12:06 29.48984 119.30845 19013 ft 396 kts 44°
2026-04-27 12:06 29.50826 119.33185 18577 ft 394 kts 45°
2026-04-27 12:06 29.52658 119.35508 18147 ft 391 kts 45°
2026-04-27 12:07 29.54475 119.37823 17719 ft 389 kts 45°
2026-04-27 12:07 29.56281 119.40126 17292 ft 387 kts 45°
2026-04-27 12:07 29.58069 119.42416 16867 ft 384 kts 46°
2026-04-27 12:07 29.59849 119.44698 16444 ft 382 kts 46°
2026-04-27 12:08 29.61615 119.46963 16023 ft 380 kts 46°
2026-04-27 12:08 29.63371 119.49218 15603 ft 378 kts 46°
2026-04-27 12:08 29.65095 119.51434 15191 ft 375 kts 46°
2026-04-27 12:08 29.66824 119.53667 14776 ft 373 kts 46°
2026-04-27 12:09 29.68543 119.55893 14361 ft 371 kts 47°
2026-04-27 12:09 29.70252 119.58108 13946 ft 369 kts 47°
2026-04-27 12:09 29.71951 119.60311 13533 ft 367 kts 47°
2026-04-27 12:09 29.73637 119.62498 13124 ft 365 kts 47°
2026-04-27 12:10 29.75314 119.64673 12715 ft 362 kts 47°
2026-04-27 12:10 29.76954 119.66866 12305 ft 360 kts 51°
2026-04-27 12:10 29.78462 119.69161 11898 ft 358 kts 54°
2026-04-27 12:10 29.79885 119.71501 11496 ft 356 kts 55°
2026-04-27 12:11 29.81269 119.73807 11124 ft 353 kts 55°
2026-04-27 12:11 29.82678 119.76108 10741 ft 350 kts 54°
2026-04-27 12:11 29.84085 119.78383 10351 ft 347 kts 54°
2026-04-27 12:11 29.85473 119.80619 10180 ft 338 kts 54°
2026-04-27 12:12 29.86815 119.82778 10109 ft 325 kts 54°
2026-04-27 12:12 29.88113 119.84862 10034 ft 314 kts 54°
2026-04-27 12:12 29.89360 119.86866 10008 ft 301 kts 54°
2026-04-27 12:12 29.90482 119.88866 9806 ft 296 kts 61°
2026-04-27 12:13 29.91430 119.90963 9313 ft 301 kts 64°
2026-04-27 12:13 29.92367 119.93119 8970 ft 300 kts 63°
2026-04-27 12:13 29.93309 119.95263 8640 ft 299 kts 63°
2026-04-27 12:13 29.94248 119.97396 8311 ft 298 kts 63°
2026-04-27 12:14 29.95208 119.99506 7984 ft 296 kts 63°
2026-04-27 12:14 29.96159 120.01605 7655 ft 295 kts 63°
2026-04-27 12:14 29.97102 120.03695 7326 ft 293 kts 63°
2026-04-27 12:14 29.98037 120.05775 6996 ft 292 kts 63°
2026-04-27 12:15 29.98880 120.07653 6694 ft 290 kts 63°
2026-04-27 12:15 29.99797 120.09696 6533 ft 282 kts 63°
2026-04-27 12:15 30.00671 120.11641 6457 ft 270 kts 63°
2026-04-27 12:15 30.01504 120.13500 6247 ft 253 kts 63°
2026-04-27 12:16 30.02288 120.15254 5974 ft 240 kts 63°
2026-04-27 12:16 30.03047 120.16943 5558 ft 235 kts 61°
2026-04-27 12:16 30.04109 120.18333 5058 ft 233 kts 31°
2026-04-27 12:16 30.05656 120.18715 4563 ft 230 kts 353°
2026-04-27 12:17 30.07139 120.18081 4178 ft 228 kts 333°
2026-04-27 12:17 30.08521 120.17151 4106 ft 231 kts 331°
2026-04-27 12:17 30.09898 120.16265 4080 ft 228 kts 332°
2026-04-27 12:17 30.11358 120.15723 3975 ft 216 kts
2026-04-27 12:18 30.12687 120.16295 3954 ft 201 kts 39°
2026-04-27 12:18 30.13566 120.17489 4013 ft 192 kts 56°
2026-04-27 12:18 30.14210 120.18838 4007 ft 192 kts 64°
2026-04-27 12:18 30.14709 120.20268 4003 ft 192 kts 68°
2026-04-27 12:19 30.15263 120.21677 3999 ft 193 kts 64°
2026-04-27 12:19 30.15876 120.23055 3976 ft 194 kts 62°
2026-04-27 12:19 30.16508 120.24429 3727 ft 197 kts 62°
2026-04-27 12:19 30.17142 120.25824 3402 ft 195 kts 62°
2026-04-27 12:20 30.17763 120.27202 3077 ft 192 kts 63°
2026-04-27 12:20 30.18385 120.28578 2589 ft 198 kts 63°
2026-04-27 12:20 30.19019 120.30001 2163 ft 196 kts 63°
2026-04-27 12:20 30.19623 120.31364 1883 ft 185 kts 63°
2026-04-27 12:21 30.20189 120.32642 1650 ft 172 kts 63°
2026-04-27 12:21 30.20715 120.33830 1417 ft 161 kts 63°
2026-04-27 12:21 30.21216 120.34961 1208 ft 155 kts 63°
2026-04-27 12:21 30.21696 120.36045 1007 ft 152 kts 63°
2026-04-27 12:22 30.22175 120.37126 806 ft 150 kts 63°
2026-04-27 12:22 30.22651 120.38200 608 ft 150 kts 63°
2026-04-27 12:22 30.23134 120.39280 399 ft 152 kts 63°
2026-04-27 12:22 30.23625 120.40370 175 ft 154 kts 63°
2026-04-27 12:23 30.24110 120.41465 46 ft 146 kts 63°
2026-04-27 12:23 30.24515 120.42379 31 ft 97 kts 64°
2026-04-27 12:23 30.24703 120.42826 31 ft 35 kts 73°
2026-04-27 12:23 30.24728 120.42984 31 ft 16 kts 88°
2026-04-27 12:24 30.24727 120.43095 31 ft 10 kts 92°
2026-04-27 12:24 30.24689 120.43150 31 ft 9 kts 170°
2026-04-27 12:24 30.24651 120.43125 31 ft 6 kts 235°
2026-04-27 12:24 30.24629 120.43080 31 ft 6 kts 242°
2026-04-27 12:25 30.24610 120.43036 31 ft 6 kts 243°
2026-04-27 12:25 30.24591 120.42994 31 ft 6 kts 243°
2026-04-27 12:25 30.24569 120.42955 31 ft 6 kts 219°
2026-04-27 12:25 30.24532 120.42948 31 ft 5 kts 166°
2026-04-27 12:26 30.24498 120.42965 31 ft 5 kts 153°
2026-04-27 12:26 30.24467 120.42985 31 ft 5 kts 152°
2026-04-27 12:26 30.24436 120.43004 31 ft 5 kts 152°
2026-04-27 12:26 30.24406 120.43022 31 ft 5 kts 151°
2026-04-27 12:27 30.24378 120.43040 31 ft 5 kts 153°
2026-04-27 12:27 30.24357 120.43052 31 ft 3 kts 153°
2026-04-27 12:27 30.24343 120.43060 31 ft 1 kts 153°
2026-04-27 12:27 30.24343 120.43061 31 ft 0 kts 153°